This is the latest recevied weather packets stored in our database for station/object W8RSN-13. If no packets are shown the sender has not sent any weather packets the latest 10 day(s).
| Time | Temp. | Humidity | Pressure | Rain* | Wind** | Luminosity | Snow |
|---|---|---|---|---|---|---|---|
| 1787804657 | 29.44° C | 48% | 1014 hPa | - | - | - | - |
| 1787804357 | 29.44° C | 47% | 1014.2 hPa | - | - | - | - |
| 1787804056 | 29.44° C | 47% | 1013.9 hPa | - | - | - | - |
| 1787803775 | 29.44° C | 47% | 1014.1 hPa | - | - | - | - |
| 1787803474 | 29.44° C | 46% | 1014 hPa | - | - | - | - |
| 1787803173 | 29.44° C | 46% | 1013.9 hPa | - | - | - | - |
| 1787802872 | 30° C | 46% | 1013.9 hPa | - | - | - | - |
| 1787802571 | 30° C | 45% | 1013.8 hPa | - | - | - | - |
| 1787802271 | 30° C | 45% | 1013.9 hPa | - | - | - | - |
| 1787801970 | 30° C | 44% | 1013.8 hPa | - | - | - | - |
| 1787801669 | 30.56° C | 44% | 1013.4 hPa | - | - | - | - |
| 1787801367 | 30.56° C | 44% | 1013.3 hPa | - | - | - | - |
| 1787801067 | 30.56° C | 43% | 1013.3 hPa | - | - | - | - |
| 1787800766 | 31.11° C | 43% | 1013.3 hPa | - | - | - | - |
| 1787800467 | 31.11° C | 43% | 1013 hPa | - | - | - | - |
| 1787800164 | 31.11° C | 43% | 1012.9 hPa | - | - | - | - |
| 1787799863 | 31.11° C | 42% | 1012.9 hPa | - | - | - | - |
| 1787799562 | 31.11° C | 42% | 1012.9 hPa | - | - | - | - |
| 1787799262 | 31.67° C | 42% | 1012.7 hPa | - | - | - | - |
| 1787798960 | 31.67° C | 41% | 1012.6 hPa | - | - | - | - |
| 1787798660 | 32.22° C | 40% | 1012.4 hPa | - | - | - | - |
| 1787798359 | 32.78° C | 39% | 1012.2 hPa | - | - | - | - |
| 1787798058 | 33.33° C | 38% | 1012.4 hPa | - | - | - | - |
| 1787797757 | 33.33° C | 37% | 1012.4 hPa | - | - | - | - |
| 1787797456 | 34.44° C | 35% | 1012.2 hPa | - | - | - | - |
* Rain since midnight (hover to see other rain measurements)
** Current wind speed in m/s (hover to see current wind gust speed)